Voltar ao catálogo

DELTA 1 DEB

AtivoSSO
NORAD 13827·DEBRIS·🇺🇸 United States

Lançado Mar 5, 1978 de Vandenberg Space Force Base

Loading…

Próximas Passagens (próximas 24 horas)

TLE

AtualizadoSource: Space-Track

Época: Sep 14, 2026, 12:01 UTC

1 13827U 78026FW  26257.50084728  .00001211  00000-0  23879-3 0  9997
2 13827  98.4138 275.5420 0059351 226.5352 291.3349 14.63321354293310

Acompanhe DELTA 1 DEB em tempo real com AllMySat

Download on the App Store